Satellite-Ground Cal/Val Region Overpasses Predictions

Prediction of Satellite NPP Overpassing Cal/Val Region: PacNW

Region Location: (Latitude: 10.00, Longitude: 139.50) to (Latitude: 22.70, Longitude: 165.60).

Table of predicted overpasses for the next 14.0 days since TLE Epoch: 5/21/2016
Interval Starting Time Starting Location Ending Time Ending Location
1 05/21/2016 15:12:14 ( 22.64, 157.10) 05/21/2016 15:15:49 ( 10.02, 154.10)
2 05/22/2016 02:21:19 ( 10.04, 164.63) 05/22/2016 02:24:54 ( 22.66, 161.63)
3 05/22/2016 14:53:12 ( 22.68, 161.86) 05/22/2016 14:56:47 ( 10.06, 158.86)
4 05/23/2016 03:43:47 ( 10.02, 144.02) 05/23/2016 03:47:23 ( 22.69, 141.00)
5 05/23/2016 14:35:21 ( 18.49, 165.59) 05/23/2016 14:37:45 ( 10.03, 163.61)
6 05/23/2016 16:15:40 ( 22.65, 141.24) 05/23/2016 16:17:42 ( 15.49, 139.50)
7 05/24/2016 03:24:45 ( 10.04, 148.77) 05/24/2016 03:28:20 ( 22.66, 145.77)
8 05/24/2016 15:56:38 ( 22.68, 146.00) 05/24/2016 16:00:13 ( 10.06, 143.00)
9 05/25/2016 03:05:43 ( 10.01, 153.53) 05/25/2016 03:09:19 ( 22.69, 150.52)
10 05/25/2016 15:37:36 ( 22.66, 150.75) 05/25/2016 15:41:11 ( 10.03, 147.75)
11 05/26/2016 02:46:41 ( 10.03, 158.29) 05/26/2016 02:50:16 ( 22.65, 155.29)
12 05/26/2016 15:18:34 ( 22.69, 155.52) 05/26/2016 15:22:10 ( 10.01, 152.50)
13 05/27/2016 02:27:40 ( 10.06, 163.04) 05/27/2016 02:31:15 ( 22.68, 160.04)
14 05/27/2016 14:59:33 ( 22.66, 160.27) 05/27/2016 15:03:08 ( 10.04, 157.27)
15 05/28/2016 02:11:17 ( 19.42, 165.60) 05/28/2016 02:12:12 ( 22.64, 164.80)
16 05/28/2016 03:50:07 ( 10.03, 142.43) 05/28/2016 03:53:36 ( 22.30, 139.51)
17 05/28/2016 14:40:30 ( 22.70, 165.03) 05/28/2016 14:44:06 ( 10.01, 162.02)
18 05/28/2016 16:22:00 ( 22.69, 139.66) 05/28/2016 16:22:10 ( 22.10, 139.51)
19 05/29/2016 03:31:06 ( 10.06, 147.18) 05/29/2016 03:34:41 ( 22.68, 144.18)
20 05/29/2016 16:02:59 ( 22.66, 144.41) 05/29/2016 16:06:34 ( 10.04, 141.41)
21 05/30/2016 03:12:03 ( 10.02, 151.94) 05/30/2016 03:15:38 ( 22.64, 148.94)
22 05/30/2016 15:43:56 ( 22.70, 149.17) 05/30/2016 15:47:32 ( 10.01, 146.16)
23
